OSCAR 7 (AO-7)

Last updated on Fri Feb 06 2026 00:03:13 GMT+0000 (Coordinated Universal Time)

1 07530U 74089B 26036.56952301 -.00000051 00000+0 -25567-4 0 9997 2 07530 101.9971 48.4149 0012269 23.6522 97.1795 12.53695634344020
UTC large
Height (km)
Speed (km/s)
/
Latitude / Longitude
Inclination (degrees)
Orbital Period (minutes)
Azimuth
Elevation
Range (km)
Doppler Factor

Next 0 passes for location: London (51.5072 / 0.1276)

Sorry there are no passes over London.